Location: Escondida
(34.1015°N, 106.8964°W)
Time: 03:30:17
(UTC+00:00)

ISS - Visible Passes

Search period start: 14 February 2026 00:00
Search period end: 24 February 2026 00:00
Orbit: 413 x 429 km, 51.6° (Epoch: 11 February)

Date Brightness Start Highest point End Pass type
(mag) Time Alt. Az. Time Alt. Az. Time Alt. Az.
14 Feb -0.7 11:33:04 16° ENE 11:33:04 16° ENE 11:33:54 10° ENE visible
14 Feb -2.3 13:06:06 15° WNW 13:07:43 21° NW 13:10:22 10° NNE visible
15 Feb -2.5 12:21:23 29° N 12:21:23 29° N 12:23:36 10° NNE visible
16 Feb -0.6 11:36:29 11° NE 11:36:29 11° NE 11:36:41 10° NE visible
17 Feb -1.3 12:24:26 12° N 12:24:26 12° N 12:25:13 10° N visible
